Location: Deep Valley
(39.7548°N, 80.4695°W)
Time: 08:00:06
(UTC+00:00)

Envisat - Visible Passes

Search period start: 26 November 2020 00:00
Search period end: 06 December 2020 00:00
Orbit: 764 x 766 km, 98.1° (Epoch: 25 November)

Date Brightness Start Highest point End Pass type
(mag) Time Alt. Az. Time Alt. Az. Time Alt. Az.
26 Nov 5.8 10:10:10 10° NE 10:13:38 18° E 10:17:05 10° SE visible
26 Nov 4.5 23:01:50 10° SSW 23:06:35 41° W 23:11:23 10° NNW visible
27 Nov 3.3 11:11:05 10° NNE 11:16:11 74° ESE 11:21:15 10° S visible
27 Nov 3.0 22:24:40 10° SSE 22:29:44 87° ENE 22:34:51 10° NNW visible
28 Nov 4.9 10:34:43 10° NNE 10:39:16 32° E 10:43:46 10° SSE visible
28 Nov 5.5 23:28:11 10° SW 23:32:10 23° W 23:36:12 10° NW visible
29 Nov 6.1 09:59:29 10° ENE 10:02:08 14° E 10:04:47 10° ESE visible
29 Nov 3.0 11:36:32 10° N 11:41:34 63° WNW 11:46:34 10° SSW visible
29 Nov 4.0 22:50:14 10° S 22:55:10 52° W 23:00:09 10° NNW visible
30 Nov 3.7 10:59:46 10° NNE 11:04:47 57° E 11:09:46 10° S visible
30 Nov 6.2 23:55:36 10° WSW 23:57:51 13° W 00:00:06 10° WNW visible
01 Dec 5.3 10:23:37 10° NE 10:27:48 25° E 10:31:57 10° SSE visible
01 Dec 5.1 23:16:19 10° SSW 23:20:42 29° W 23:25:08 10° NW visible
02 Dec 6.3 09:49:29 10° ENE 09:50:37 11° E 09:51:45 10° ESE visible
02 Dec 2.9 11:25:06 10° N 11:30:12 81° WNW 11:35:16 10° SSW visible
02 Dec 3.5 22:38:43 10° S 22:43:46 67° WSW 22:48:50 10° NNW visible
03 Dec 4.2 10:48:29 10° NNE 10:53:22 45° E 10:58:12 10° S visible
03 Dec 6.0 23:43:09 10° SW 23:46:20 17° W 23:49:33 10° NW visible
04 Dec 5.6 10:12:38 10° NE 10:16:19 20° E 10:19:58 10° SE visible
04 Dec 3.3 11:50:42 10° N 11:55:32 45° WNW 12:00:21 10° SW visible
04 Dec 4.6 23:04:34 10° SSW 23:09:16 37° W 23:13:58 10° NNW visible
05 Dec 3.1 11:13:43 10° NNE 11:18:49 80° ESE 11:23:54 10° S visible
05 Dec 3.1 22:27:17 10° SSE 22:32:22 86° WSW 22:37:29 10° NNW visible
